Buffalo, NY

1:14 PM EST on December 06, 2019 (GMT -0500)
Buffalo Niagara International

Weather History for KBUF - August, 2019

Change the Weather History Date:

Saturday, August 3, 2019

  Actual Average Record
Temperature  
Mean Temperature 73 °F 71 °F  
Max Temperature 84 °F 80 °F 95 °F (2012)
Min Temperature 62 °F 62 °F 49 °F (1956)
Degree Days  
Heating Degree Days 0 0  
Month to date heating degree days 0 0  
Since 1 June heating degree days 62 73  
Since 1 July heating degree days 0 9  
Cooling Degree Days 8 6  
Month to date cooling degree days 22 18  
Year to date cooling degree days 390 344  
Since 1 June cooling degree days 382 318  
Growing Degree Days 23 (Base 50)    
Moisture  
Dew Point 56 °F    
Average Humidity 60    
Maximum Humidity 84    
Minimum Humidity 35    
Precipitation  
Precipitation 0.00 in 0.11 in 2.41 in (1980)
Month to date precipitation 0.00 0.34  
Year to date precipitation 24.75 22.24  
Snow  
Snow 0.00 in 0.00 in 0.00 in ()
Month to date snowfall 0.0 0.0  
Since 1 June snowfall 0.0 0.0  
Since 1 July snowfall 0.0 0.0  
Snow Depth 0.00 in    
Sea Level Pressure  
Sea Level Pressure 30.01 in    
Wind  
Wind Speed 6 mph (SW)    
Max Wind Speed 15 mph    
Max Gust Speed 19 mph    
Visibility 10 miles    
Events      
T = Trace of Precipitation, MM = Missing Value Source: NWS Daily Summary

Daily Weather History Graph

Daily Weather History Graph

Search for Another Location

Airport or City:

Astronomy

Aug. 03, 2019 Rise Set
Actual Time 6:07 AM EDT 8:33 PM EDT
Civil Twilight 5:35 AM EDT 9:05 PM EDT
Nautical Twilight 4:55 AM EDT 9:45 PM EDT
Astronomical Twilight 4:11 AM EDT 10:29 PM EDT
Moon 9:01 AM EDT (8/3) 10:33 PM EDT (8/3)
Length of Visible Light 15h 29m
Length of Day
14h 25m
Waxing Crescent, 10% of the Moon is Illuminated
Aug 3
Waxing Crescent
Aug 7
First Quarter
Aug 15
Full
Aug 23
Last Quarter
Aug 30
New

Hourly Weather History & Observations

Time (EDT) Temp. Heat Index Dew Point Humidity Pressure Visibility Wind Dir Wind Speed Gust Speed Precip Events Conditions
12:54 AM 70.0 °F - 53.1 °F 55% 30.05 in 10.0 mi SE 5.8 mph - N/A   Partly Cloudy
1:54 AM 68.0 °F - 54.0 °F 61% 30.04 in 10.0 mi SSE 5.8 mph - N/A   Partly Cloudy
2:54 AM 64.9 °F - 55.0 °F 70% 30.04 in 10.0 mi North 4.6 mph - N/A   Partly Cloudy
3:54 AM 64.9 °F - 55.0 °F 70% 30.04 in 10.0 mi NNE 3.5 mph - N/A   Partly Cloudy
4:54 AM 66.0 °F - 54.0 °F 65% 30.03 in 10.0 mi Calm Calm - N/A   Partly Cloudy
5:54 AM 64.0 °F - 55.9 °F 75% 30.05 in 10.0 mi Calm Calm - N/A   Partly Cloudy
6:54 AM 63.0 °F - 57.0 °F 81% 30.05 in 10.0 mi South 4.6 mph - N/A   Partly Cloudy
7:54 AM 64.9 °F - 57.9 °F 78% 30.06 in 10.0 mi Calm Calm - N/A   Partly Cloudy
8:54 AM 71.1 °F - 57.0 °F 61% 30.06 in 10.0 mi Calm Calm - N/A   Partly Cloudy
9:54 AM 75.0 °F - 51.1 °F 43% 30.06 in 10.0 mi Calm Calm - N/A   Partly Cloudy
10:54 AM 78.1 °F - 48.9 °F 36% 30.05 in 10.0 mi Calm Calm - N/A   Partly Cloudy
11:54 AM 79.0 °F - 52.0 °F 39% 30.03 in 10.0 mi Calm Calm - N/A   Partly Cloudy
12:54 PM 81.0 °F 80.4 °F 53.1 °F 38% 30.01 in 10.0 mi Variable 3.5 mph - N/A   Partly Cloudy
1:54 PM 82.0 °F 81.4 °F 55.0 °F 39% 30.01 in 10.0 mi WSW 8.1 mph - N/A   Partly Cloudy
2:54 PM 82.0 °F 81.4 °F 55.0 °F 39% 29.99 in 10.0 mi WNW 8.1 mph - N/A   Scattered Clouds
3:54 PM 82.0 °F 81.6 °F 55.9 °F 41% 29.98 in 10.0 mi SW 13.8 mph - N/A   Scattered Clouds
4:54 PM 81.0 °F 80.8 °F 55.9 °F 42% 29.97 in 10.0 mi SW 12.7 mph - N/A   Mostly Cloudy
5:54 PM 80.1 °F 80.2 °F 55.9 °F 43% 29.97 in 10.0 mi WSW 13.8 mph - N/A   Mostly Cloudy
6:45 PM 78.8 °F - 55.4 °F 44% 29.97 in 10.0 mi WSW 10.4 mph - N/A   Mostly Cloudy
6:54 PM 78.8 °F - 55.4 °F 44% 29.96 in 10.0 mi WSW 11.5 mph - N/A   Mostly Cloudy
7:54 PM 75.9 °F - 60.1 °F 58% 29.96 in 10.0 mi SW 13.8 mph - N/A   Mostly Cloudy
8:54 PM 75.0 °F - 60.1 °F 60% 29.97 in 10.0 mi SW 9.2 mph - N/A   Scattered Clouds
9:54 PM 73.9 °F - 60.1 °F 62% 29.98 in 10.0 mi SW 9.2 mph - N/A   Scattered Clouds
10:54 PM 75.0 °F - 62.1 °F 64% 29.98 in 10.0 mi SW 10.4 mph - N/A   Mostly Cloudy
11:54 PM 73.9 °F - 63.0 °F 68% 29.97 in 10.0 mi WSW 10.4 mph - N/A   Scattered Clouds